B603L ZJSY-ZSCN

Flight info

Callsign B603L
Flight time 1h 54m
Altitude 37100
Route PORAP W222 NUMKU W223 AGTEL W71 LH H81 GYA B330 POU G471 SHL W26 UPRIK W41 OMDUP G471 PLT W19 OSONO
Aircraft CL60/M-SBDE1E2E3FGHIJ1J4J5J7M3RWXYZ/LB1V1D1

Departure

Time 2026-04-17 07:45
Airport Sanya Phoenix International Airport (ZJSY)

Arrival

Time 2026-04-17 09:40
Airport Nanchang Changbei International Airport (ZSCN)
Time Latitude Longitude Altitude Speed Heading
2026-04-17 07:24 18.30689 109.42315 109 ft 0 kts 352°
2026-04-17 07:42 18.30695 109.42316 109 ft 3 kts 28°
2026-04-17 07:42 18.30665 109.42338 108 ft 10 kts 176°
2026-04-17 07:42 18.30603 109.42278 106 ft 17 kts 266°
2026-04-17 07:42 18.30585 109.42132 108 ft 22 kts 261°
2026-04-17 07:43 18.30561 109.41949 112 ft 27 kts 262°
2026-04-17 07:43 18.30533 109.41733 113 ft 32 kts 263°
2026-04-17 07:43 18.30506 109.41519 111 ft 25 kts 262°
2026-04-17 07:43 18.30483 109.41348 104 ft 23 kts 261°
2026-04-17 07:44 18.30459 109.41159 100 ft 28 kts 262°
2026-04-17 07:44 18.30431 109.40946 95 ft 26 kts 262°
2026-04-17 07:44 18.30389 109.40834 91 ft 14 kts 194°
2026-04-17 07:44 18.30283 109.40846 88 ft 16 kts 172°
2026-04-17 07:45 18.30253 109.40919 87 ft 14 kts 82°
2026-04-17 07:45 18.30303 109.41298 96 ft 102 kts 83°
2026-04-17 07:45 18.30431 109.42320 316 ft 166 kts 85°
2026-04-17 07:45 18.30645 109.43616 989 ft 195 kts 78°
2026-04-17 07:46 18.31067 109.45015 1796 ft 211 kts 74°
2026-04-17 07:46 18.31543 109.46532 2390 ft 223 kts 74°
2026-04-17 07:46 18.32029 109.48077 2992 ft 219 kts 74°
2026-04-17 07:46 18.32469 109.49603 3562 ft 216 kts 82°
2026-04-17 07:47 18.32494 109.51166 4125 ft 213 kts 103°
2026-04-17 07:47 18.31982 109.52611 4632 ft 213 kts 122°
2026-04-17 07:47 18.31006 109.53796 4841 ft 213 kts 143°
2026-04-17 07:47 18.29689 109.54503 4877 ft 211 kts 164°
2026-04-17 07:48 18.28214 109.54658 4898 ft 212 kts 184°
2026-04-17 07:48 18.26798 109.54254 4898 ft 215 kts 205°
2026-04-17 07:48 18.25585 109.53310 4895 ft 217 kts 226°
2026-04-17 07:48 18.24783 109.51949 4895 ft 220 kts 248°
2026-04-17 07:49 18.24535 109.50352 4890 ft 224 kts 270°
2026-04-17 07:49 18.24861 109.48743 4895 ft 226 kts 292°
2026-04-17 07:49 18.25679 109.47338 5009 ft 225 kts 308°
2026-04-17 07:49 18.26767 109.46149 5478 ft 224 kts 320°
2026-04-17 07:50 18.28068 109.45214 5973 ft 236 kts 332°
2026-04-17 07:50 18.29689 109.44541 6607 ft 260 kts 346°
2026-04-17 07:50 18.31524 109.44292 7386 ft 275 kts
2026-04-17 07:50 18.33442 109.44567 8247 ft 284 kts 17°
2026-04-17 07:51 18.35279 109.45401 9161 ft 289 kts 33°
2026-04-17 07:51 18.36845 109.46738 10009 ft 295 kts 48°
2026-04-17 07:51 18.38206 109.48378 10842 ft 301 kts 50°
2026-04-17 07:51 18.39596 109.50053 11680 ft 307 kts 49°
2026-04-17 07:52 18.41002 109.51743 12542 ft 310 kts 49°
2026-04-17 07:52 18.42424 109.53452 13599 ft 313 kts 49°
2026-04-17 07:52 18.43885 109.55209 14679 ft 317 kts 49°
2026-04-17 07:52 18.45338 109.56960 15805 ft 321 kts 49°
2026-04-17 07:53 18.46802 109.58722 16936 ft 325 kts 49°
2026-04-17 07:53 18.48304 109.60511 17593 ft 330 kts 45°
2026-04-17 07:53 18.50151 109.61956 18146 ft 336 kts 25°
2026-04-17 07:53 18.52331 109.63009 18674 ft 346 kts 21°
2026-04-17 07:54 18.54549 109.64059 19361 ft 352 kts 21°
2026-04-17 07:54 18.56772 109.65118 20134 ft 355 kts 21°
2026-04-17 07:54 18.59034 109.66196 20917 ft 358 kts 21°
2026-04-17 07:54 18.61328 109.67291 21646 ft 361 kts 21°
2026-04-17 07:55 18.63612 109.68381 22349 ft 364 kts 21°
2026-04-17 07:55 18.65941 109.69495 23026 ft 368 kts 21°
2026-04-17 07:55 18.68295 109.70620 23700 ft 373 kts 21°
2026-04-17 07:55 18.70676 109.71760 24373 ft 376 kts 21°
2026-04-17 07:56 18.73081 109.72911 25024 ft 379 kts 21°
2026-04-17 07:56 18.75483 109.74062 25657 ft 382 kts 21°
2026-04-17 07:56 18.77942 109.75240 26284 ft 385 kts 21°
2026-04-17 07:56 18.80409 109.76423 26891 ft 388 kts 20°
2026-04-17 07:57 18.82886 109.77610 27445 ft 391 kts 20°
2026-04-17 07:57 18.85383 109.78808 27978 ft 395 kts 21°
2026-04-17 07:57 18.87896 109.80014 28545 ft 397 kts 20°
2026-04-17 07:57 18.90400 109.81216 29022 ft 401 kts 20°
2026-04-17 07:58 18.92988 109.82459 29538 ft 404 kts 20°
2026-04-17 07:58 18.95546 109.83689 30036 ft 406 kts 20°
2026-04-17 07:58 18.98137 109.84934 30514 ft 409 kts 20°
2026-04-17 07:58 19.00722 109.86178 30944 ft 412 kts 20°
2026-04-17 07:59 19.03358 109.87447 31363 ft 415 kts 20°
2026-04-17 07:59 19.05992 109.88714 31765 ft 418 kts 20°
2026-04-17 07:59 19.08669 109.90004 32193 ft 420 kts 20°
2026-04-17 07:59 19.11335 109.91288 32530 ft 423 kts 20°
2026-04-17 08:00 19.14062 109.92602 32965 ft 426 kts 19°
2026-04-17 08:00 19.16759 109.93903 33392 ft 428 kts 19°
2026-04-17 08:00 19.19487 109.95218 33672 ft 433 kts 20°
2026-04-17 08:00 19.22273 109.96563 34108 ft 433 kts 20°
2026-04-17 08:01 19.24986 109.97873 34685 ft 430 kts 19°
2026-04-17 08:01 19.27746 109.99161 35206 ft 428 kts 18°
2026-04-17 08:01 19.30486 110.00425 35686 ft 427 kts 19°
2026-04-17 08:01 19.33211 110.01705 36091 ft 427 kts 19°
2026-04-17 08:02 19.35923 110.03012 36428 ft 428 kts 19°
2026-04-17 08:02 19.38625 110.04316 36775 ft 429 kts 19°
2026-04-17 08:02 19.41349 110.05630 36982 ft 432 kts 19°
2026-04-17 08:02 19.44164 110.06986 36977 ft 440 kts 19°
2026-04-17 08:03 19.49814 110.09709 36976 ft 454 kts 20°
2026-04-17 08:03 19.55700 110.12550 36956 ft 467 kts 20°
2026-04-17 08:04 19.61715 110.15459 36962 ft 479 kts 20°
2026-04-17 08:04 19.67842 110.18425 36952 ft 485 kts 20°
2026-04-17 08:05 19.74010 110.21414 36948 ft 487 kts 20°
2026-04-17 08:05 19.80194 110.24414 36948 ft 487 kts 20°
2026-04-17 08:06 19.86379 110.27416 36944 ft 488 kts 20°
2026-04-17 08:06 19.92561 110.30420 36948 ft 488 kts 20°
2026-04-17 08:07 19.98789 110.33448 36966 ft 489 kts 20°
2026-04-17 08:07 20.05136 110.35896 36960 ft 482 kts
2026-04-17 08:08 20.11770 110.36761 36950 ft 473 kts 354°
2026-04-17 08:08 20.18319 110.36036 36940 ft 464 kts 343°
2026-04-17 08:09 20.24638 110.34692 36928 ft 463 kts 343°
2026-04-17 08:09 20.30983 110.33348 36934 ft 463 kts 342°
2026-04-17 08:10 20.37308 110.32008 36945 ft 463 kts 342°
2026-04-17 08:10 20.43655 110.30662 36957 ft 463 kts 342°
2026-04-17 08:11 20.50045 110.29540 36957 ft 469 kts 350°
2026-04-17 08:11 20.56669 110.29755 36956 ft 475 kts 358°
2026-04-17 08:12 20.63291 110.30184 36954 ft 476 kts 358°
2026-04-17 08:12 20.69931 110.30616 36957 ft 475 kts 358°
2026-04-17 08:13 20.76555 110.31049 36942 ft 474 kts 358°
2026-04-17 08:14 20.86447 110.31695 36945 ft 474 kts 357°
2026-04-17 08:14 20.93077 110.32130 36950 ft 474 kts 357°
2026-04-17 08:15 20.99691 110.32559 36954 ft 474 kts 357°
2026-04-17 08:15 21.06288 110.33428 36960 ft 483 kts
2026-04-17 08:16 21.12758 110.35766 36964 ft 492 kts 19°
2026-04-17 08:16 21.18644 110.39570 36978 ft 500 kts 33°
2026-04-17 08:17 21.23765 110.44748 36954 ft 506 kts 42°
2026-04-17 08:17 21.28656 110.50195 36946 ft 506 kts 42°
2026-04-17 08:18 21.33556 110.55656 36946 ft 506 kts 42°
2026-04-17 08:18 21.38465 110.61113 36950 ft 506 kts 42°
2026-04-17 08:19 21.43377 110.66510 36953 ft 507 kts 42°
2026-04-17 08:19 21.48326 110.71957 36952 ft 507 kts 42°
2026-04-17 08:20 21.53252 110.77385 36936 ft 508 kts 42°
2026-04-17 08:20 21.58205 110.82850 36951 ft 508 kts 42°
2026-04-17 08:21 21.63136 110.88296 36945 ft 509 kts 42°
2026-04-17 08:21 21.68072 110.93752 36982 ft 509 kts 42°
2026-04-17 08:22 21.73023 110.99229 36953 ft 510 kts 42°
2026-04-17 08:22 21.77986 111.04727 36965 ft 510 kts 42°
2026-04-17 08:23 21.82956 111.10239 36981 ft 511 kts 42°
2026-04-17 08:23 21.87908 111.15738 36991 ft 511 kts 42°
2026-04-17 08:24 21.92842 111.21222 37006 ft 511 kts 42°
2026-04-17 08:24 21.97778 111.26715 37035 ft 511 kts 42°
2026-04-17 08:25 22.02775 111.32259 37023 ft 512 kts 41°
2026-04-17 08:25 22.07801 111.37686 37036 ft 513 kts 41°
2026-04-17 08:26 22.12854 111.43149 37037 ft 513 kts 41°
2026-04-17 08:26 22.17886 111.48595 37039 ft 513 kts 41°
2026-04-17 08:27 22.22921 111.54053 37038 ft 512 kts 41°
2026-04-17 08:27 22.27975 111.59536 37028 ft 513 kts 41°
2026-04-17 08:28 22.33025 111.65022 37025 ft 513 kts 41°
2026-04-17 08:28 22.38046 111.70525 37033 ft 513 kts 43°
2026-04-17 08:29 22.43022 111.76100 37045 ft 513 kts 43°
2026-04-17 08:29 22.47986 111.81665 37039 ft 514 kts 43°
2026-04-17 08:30 22.52966 111.87255 37022 ft 514 kts 43°
2026-04-17 08:30 22.57907 111.92807 37011 ft 514 kts 43°
2026-04-17 08:31 22.62886 111.98406 36998 ft 515 kts 43°
2026-04-17 08:31 22.67854 112.04007 37019 ft 515 kts 43°
2026-04-17 08:32 22.72791 112.09611 37016 ft 516 kts 43°
2026-04-17 08:32 22.77771 112.15270 36998 ft 517 kts 43°
2026-04-17 08:33 22.82744 112.20928 36988 ft 517 kts 43°
2026-04-17 08:33 22.87683 112.26553 36976 ft 516 kts 43°
2026-04-17 08:34 22.92655 112.32222 36982 ft 516 kts 43°
2026-04-17 08:34 22.97540 112.37911 36979 ft 517 kts 47°
2026-04-17 08:35 23.01639 112.44414 36974 ft 521 kts 60°
2026-04-17 08:35 23.04436 112.51651 36969 ft 523 kts 73°
2026-04-17 08:36 23.05824 112.59397 36971 ft 522 kts 86°
2026-04-17 08:36 23.05765 112.67245 36959 ft 519 kts 96°
2026-04-17 08:37 23.05239 112.75064 36963 ft 519 kts 96°
2026-04-17 08:37 23.04713 112.82864 36957 ft 520 kts 96°
2026-04-17 08:38 23.04178 112.90700 36956 ft 519 kts 96°
2026-04-17 08:38 23.03642 112.98476 36936 ft 519 kts 96°
2026-04-17 08:39 23.03099 113.06287 36929 ft 519 kts 96°
2026-04-17 08:39 23.02552 113.14081 36928 ft 519 kts 96°
2026-04-17 08:40 23.02486 113.21893 36928 ft 521 kts 85°
2026-04-17 08:40 23.03332 113.29713 36922 ft 521 kts 84°
2026-04-17 08:41 23.04175 113.37499 36936 ft 520 kts 84°
2026-04-17 08:41 23.05015 113.45321 36937 ft 521 kts 84°
2026-04-17 08:42 23.05847 113.53115 36937 ft 521 kts 84°
2026-04-17 08:42 23.06676 113.60928 36931 ft 522 kts 84°
2026-04-17 08:43 23.07701 113.68720 36956 ft 521 kts 77°
2026-04-17 08:43 23.10184 113.76132 36954 ft 519 kts 61°
2026-04-17 08:44 23.14170 113.82582 36956 ft 515 kts 46°
2026-04-17 08:44 23.19436 113.87800 36964 ft 507 kts 31°
2026-04-17 08:45 23.25574 113.91470 36978 ft 496 kts 16°
2026-04-17 08:45 23.32045 113.94068 36974 ft 494 kts 14°
2026-04-17 08:46 23.38546 113.96650 36976 ft 493 kts 14°
2026-04-17 08:46 23.45028 113.99228 36968 ft 493 kts 15°
2026-04-17 08:47 23.51231 114.02493 36969 ft 503 kts 28°
2026-04-17 08:47 23.56903 114.07081 36992 ft 507 kts 33°
2026-04-17 08:48 23.62509 114.11790 36993 ft 508 kts 33°
2026-04-17 08:48 23.68125 114.16513 36995 ft 509 kts 33°
2026-04-17 08:49 23.73731 114.21233 36988 ft 508 kts 33°
2026-04-17 08:49 23.79357 114.25974 36985 ft 508 kts 33°
2026-04-17 08:50 23.84967 114.30644 36996 ft 507 kts 32°
2026-04-17 08:50 23.90654 114.35290 37010 ft 507 kts 32°
2026-04-17 08:51 23.96290 114.39901 37016 ft 507 kts 32°
2026-04-17 08:51 24.01983 114.44563 37019 ft 508 kts 32°
2026-04-17 08:52 24.07641 114.49204 37026 ft 507 kts 32°
2026-04-17 08:52 24.13284 114.53839 37002 ft 507 kts 32°
2026-04-17 08:53 24.18971 114.58514 37003 ft 507 kts 32°
2026-04-17 08:53 24.24622 114.63165 37004 ft 508 kts 32°
2026-04-17 08:54 24.30277 114.67825 37012 ft 507 kts 32°
2026-04-17 08:54 24.35939 114.72498 37033 ft 509 kts 32°
2026-04-17 08:55 24.41615 114.77187 37029 ft 510 kts 32°
2026-04-17 08:55 24.47311 114.81898 37039 ft 511 kts 33°
2026-04-17 08:56 24.52982 114.86594 37040 ft 511 kts 33°
2026-04-17 08:56 24.58837 114.91059 37030 ft 505 kts 24°
2026-04-17 08:57 24.65212 114.94044 37023 ft 494 kts 10°
2026-04-17 08:57 24.71879 114.95787 37024 ft 491 kts
2026-04-17 08:58 24.78570 114.97437 37029 ft 490 kts
2026-04-17 08:58 24.85275 114.99070 37043 ft 490 kts
2026-04-17 08:59 24.91957 115.00698 37050 ft 491 kts
2026-04-17 08:59 24.98646 115.02330 37050 ft 492 kts
2026-04-17 09:00 25.05369 115.03972 37058 ft 492 kts
2026-04-17 09:00 25.12048 115.05605 37052 ft 492 kts
2026-04-17 09:01 25.18748 115.07243 37046 ft 492 kts
2026-04-17 09:01 25.25450 115.08877 37044 ft 491 kts
2026-04-17 09:02 25.32183 115.09567 37040 ft 476 kts 351°
2026-04-17 09:02 25.38611 115.08613 37031 ft 461 kts 338°
2026-04-17 09:03 25.44579 115.06180 37025 ft 449 kts 327°
2026-04-17 09:03 25.50277 115.03253 37027 ft 450 kts 327°
2026-04-17 09:04 25.55960 115.00337 37041 ft 450 kts 327°
2026-04-17 09:04 25.61658 114.97407 37046 ft 449 kts 327°
2026-04-17 09:05 25.67363 114.94470 37053 ft 449 kts 326°
2026-04-17 09:05 25.73191 114.91819 37064 ft 458 kts 334°
2026-04-17 09:06 25.79542 114.90382 37045 ft 472 kts 346°
2026-04-17 09:06 25.86225 114.90459 37034 ft 486 kts 359°
2026-04-17 09:07 25.92890 114.92245 37028 ft 500 kts 12°
2026-04-17 09:07 25.99480 114.94855 37027 ft 501 kts 12°
2026-04-17 09:08 26.02847 114.96187 37023 ft 501 kts 12°
2026-04-17 09:08 26.06871 114.97780 37024 ft 501 kts 13°
2026-04-17 09:09 26.13469 115.00394 37016 ft 499 kts 13°
2026-04-17 09:09 26.19999 115.02985 37013 ft 498 kts 13°
2026-04-17 09:10 26.29842 115.06892 37028 ft 501 kts 12°
2026-04-17 09:10 26.36420 115.09506 37031 ft 503 kts 12°
2026-04-17 09:11 26.43038 115.12139 37034 ft 504 kts 12°
2026-04-17 09:11 26.49693 115.14791 37051 ft 504 kts 12°
2026-04-17 09:12 26.56276 115.17418 37051 ft 504 kts 12°
2026-04-17 09:12 26.62928 115.20049 37039 ft 504 kts 12°
2026-04-17 09:13 26.69547 115.22665 37038 ft 505 kts 12°
2026-04-17 09:13 26.76197 115.25298 37026 ft 505 kts 12°
2026-04-17 09:14 26.82848 115.27937 37030 ft 507 kts 12°
2026-04-17 09:14 26.89552 115.30602 36565 ft 510 kts 12°
2026-04-17 09:15 26.92872 115.31926 36033 ft 504 kts 12°
2026-04-17 09:15 26.96185 115.33249 35517 ft 499 kts 12°
2026-04-17 09:15 26.99444 115.34549 34992 ft 498 kts 12°
2026-04-17 09:15 27.02708 115.35850 34457 ft 497 kts 12°
2026-04-17 09:16 27.05948 115.37143 33914 ft 498 kts 12°
2026-04-17 09:16 27.09246 115.38459 33277 ft 499 kts 12°
2026-04-17 09:16 27.12534 115.39773 32846 ft 498 kts 12°
2026-04-17 09:16 27.15797 115.41075 32386 ft 505 kts 13°
2026-04-17 09:17 27.19143 115.42411 31786 ft 511 kts 12°
2026-04-17 09:17 27.22486 115.43746 31024 ft 515 kts 12°
2026-04-17 09:17 27.25852 115.45099 30537 ft 501 kts 12°
2026-04-17 09:17 27.28563 115.46189 30121 ft 502 kts 13°
2026-04-17 09:18 27.31876 115.47516 29550 ft 503 kts 13°
2026-04-17 09:18 27.35169 115.48837 29019 ft 505 kts 13°
2026-04-17 09:18 27.38498 115.50173 28472 ft 503 kts 13°
2026-04-17 09:18 27.41762 115.51485 27908 ft 500 kts 14°
2026-04-17 09:19 27.45059 115.52813 27356 ft 495 kts 14°
2026-04-17 09:19 27.48298 115.54117 26806 ft 490 kts 14°
2026-04-17 09:19 27.51482 115.55399 26264 ft 486 kts 14°
2026-04-17 09:19 27.54668 115.56683 25736 ft 481 kts 14°
2026-04-17 09:20 27.57819 115.57952 25210 ft 477 kts 14°
2026-04-17 09:20 27.60927 115.59205 24694 ft 472 kts 14°
2026-04-17 09:20 27.64053 115.60467 24167 ft 467 kts 14°
2026-04-17 09:20 27.67108 115.61700 23653 ft 462 kts 14°
2026-04-17 09:21 27.70154 115.62929 23143 ft 458 kts 14°
2026-04-17 09:21 27.73124 115.64090 22651 ft 451 kts 11°
2026-04-17 09:21 27.76208 115.64656 22154 ft 436 kts 356°
2026-04-17 09:21 27.79163 115.64355 21658 ft 420 kts 341°
2026-04-17 09:22 27.81949 115.63422 21153 ft 413 kts 335°
2026-04-17 09:22 27.84703 115.62382 20700 ft 410 kts 335°
2026-04-17 09:22 27.87415 115.61365 20254 ft 408 kts 336°
2026-04-17 09:22 27.90106 115.60355 19781 ft 406 kts 336°
2026-04-17 09:23 27.92795 115.59346 19333 ft 404 kts 336°
2026-04-17 09:23 27.95452 115.58348 18884 ft 402 kts 336°
2026-04-17 09:23 27.98128 115.57343 18433 ft 400 kts 336°
2026-04-17 09:23 28.00784 115.56343 18005 ft 397 kts 336°
2026-04-17 09:24 28.03408 115.55356 17618 ft 397 kts 336°
2026-04-17 09:24 28.06036 115.54367 17164 ft 395 kts 337°
2026-04-17 09:24 28.08651 115.53381 16713 ft 393 kts 337°
2026-04-17 09:24 28.11292 115.52386 16276 ft 391 kts 337°
2026-04-17 09:25 28.13876 115.51411 15843 ft 389 kts 337°
2026-04-17 09:25 28.16442 115.50443 15414 ft 387 kts 337°
2026-04-17 09:25 28.18986 115.49483 14986 ft 385 kts 337°
2026-04-17 09:25 28.21537 115.48519 14561 ft 380 kts 338°
2026-04-17 09:26 28.24059 115.47565 14143 ft 376 kts 338°
2026-04-17 09:26 28.26542 115.46626 13727 ft 370 kts 338°
2026-04-17 09:26 28.28969 115.45707 13321 ft 363 kts 338°
2026-04-17 09:26 28.31362 115.44801 12937 ft 355 kts 338°
2026-04-17 09:27 28.33694 115.43917 12523 ft 349 kts 338°
2026-04-17 09:27 28.35964 115.43057 12154 ft 341 kts 338°
2026-04-17 09:27 28.38212 115.42203 11782 ft 334 kts 338°
2026-04-17 09:27 28.40391 115.41377 11406 ft 326 kts 338°
2026-04-17 09:28 28.42574 115.40753 11049 ft 320 kts 351°
2026-04-17 09:28 28.44807 115.40848 10646 ft 319 kts
2026-04-17 09:28 28.46890 115.41705 10259 ft 317 kts 27°
2026-04-17 09:28 28.48631 115.43198 9825 ft 315 kts 42°
2026-04-17 09:29 28.50194 115.44947 9502 ft 308 kts 43°
2026-04-17 09:29 28.51703 115.46631 9166 ft 301 kts 43°
2026-04-17 09:29 28.53180 115.48280 8838 ft 295 kts 43°
2026-04-17 09:29 28.54646 115.49917 8512 ft 289 kts 43°
2026-04-17 09:30 28.56061 115.51499 8202 ft 283 kts 43°
2026-04-17 09:30 28.57474 115.53079 7877 ft 278 kts 43°
2026-04-17 09:30 28.58833 115.54598 7561 ft 271 kts 43°
2026-04-17 09:30 28.60150 115.56072 7295 ft 261 kts 43°
2026-04-17 09:31 28.61435 115.57512 6997 ft 253 kts 43°
2026-04-17 09:31 28.62676 115.58903 6744 ft 244 kts 43°
2026-04-17 09:31 28.63843 115.60308 6440 ft 238 kts 53°
2026-04-17 09:31 28.64505 115.62002 6148 ft 233 kts 78°
2026-04-17 09:32 28.64488 115.63818 5886 ft 227 kts 102°
2026-04-17 09:32 28.63951 115.65506 5564 ft 224 kts 112°
2026-04-17 09:32 28.63343 115.67103 5356 ft 218 kts 112°
2026-04-17 09:32 28.62776 115.68721 5100 ft 220 kts 103°
2026-04-17 09:33 28.62788 115.70435 4872 ft 214 kts 71°
2026-04-17 09:33 28.63343 115.71999 4612 ft 213 kts 65°
2026-04-17 09:33 28.63937 115.73555 4356 ft 214 kts 65°
2026-04-17 09:33 28.64526 115.75114 4138 ft 207 kts 65°
2026-04-17 09:34 28.65084 115.76596 3915 ft 200 kts 65°
2026-04-17 09:34 28.65626 115.78036 3718 ft 193 kts 65°
2026-04-17 09:34 28.66144 115.79414 3502 ft 187 kts 65°
2026-04-17 09:34 28.66858 115.80626 3297 ft 183 kts 36°
2026-04-17 09:35 28.68015 115.81294 3121 ft 186 kts 22°
2026-04-17 09:35 28.69211 115.81883 2881 ft 186 kts 23°
2026-04-17 09:35 28.70389 115.82466 2633 ft 184 kts 23°
2026-04-17 09:35 28.71578 115.83044 2382 ft 182 kts 23°
2026-04-17 09:36 28.72728 115.83602 2303 ft 173 kts 22°
2026-04-17 09:36 28.73797 115.84119 2308 ft 162 kts 22°
2026-04-17 09:36 28.74850 115.84628 2271 ft 162 kts 22°
2026-04-17 09:36 28.75858 115.85116 2093 ft 145 kts 22°
2026-04-17 09:37 28.76741 115.85543 1942 ft 134 kts 22°
2026-04-17 09:37 28.77592 115.85954 1722 ft 131 kts 23°
2026-04-17 09:37 28.78419 115.86354 1559 ft 127 kts 23°
2026-04-17 09:37 28.79249 115.86757 1392 ft 127 kts 23°
2026-04-17 09:38 28.80070 115.87154 1225 ft 125 kts 23°
2026-04-17 09:38 28.80879 115.87545 1052 ft 126 kts 23°
2026-04-17 09:38 28.81687 115.87932 876 ft 125 kts 24°
2026-04-17 09:38 28.82498 115.88319 714 ft 124 kts 25°
2026-04-17 09:39 28.83283 115.88701 558 ft 123 kts 25°
2026-04-17 09:39 28.84074 115.89088 401 ft 122 kts 26°
2026-04-17 09:39 28.84861 115.89474 248 ft 121 kts 25°
2026-04-17 09:39 28.85632 115.89848 153 ft 110 kts 25°
2026-04-17 09:40 28.86176 115.90112 152 ft 54 kts 24°
2026-04-17 09:40 28.86395 115.90219 152 ft 21 kts 26°
2026-04-17 09:40 28.86513 115.90318 152 ft 21 kts 44°
2026-04-17 09:40 28.86599 115.90435 152 ft 13 kts 53°
2026-04-17 09:41 28.86570 115.90505 152 ft 13 kts 179°
2026-04-17 09:41 28.86472 115.90468 152 ft 11 kts 202°
2026-04-17 09:41 28.86404 115.90489 152 ft 13 kts 134°
2026-04-17 09:41 28.86308 115.90477 152 ft 13 kts 202°
2026-04-17 09:42 28.86248 115.90448 152 ft 2 kts 203°
2026-04-17 09:42 28.86234 115.90451 152 ft 2 kts 129°
2026-04-17 09:42 28.86223 115.90482 152 ft 6 kts 113°
2026-04-17 09:42 28.86207 115.90524 152 ft 4 kts 112°
2026-04-17 09:43 28.86203 115.90533 152 ft 0 kts 113°